Dewpoint
71 72 73 75 76 77 76 77 79 78 80 79 79 80 80 79 78 78 77 76 75 73 73 71 71 72 70 70 71 72 73 74 70 70 74 71 71 74 74 74 74 74 74
70 74 74 76 76 75 78 78 78 79 80 78 77 77 76 75 74 73 71 71 70 70 70 69 69 69 70 70 68 68 67 68 67 67 69 70 72 73 74 74 74 71 71
71 74 76 77 77 76 75 74 75 74 74 73 73 73 71 72 71 71 70 68 67 66 67 66 66 67 66 67 68 67 67 67 68 67 68 68 69 72 74 75 74 74 74
74 75 74 72 73 73 72 72 71 71 69 69 70 69 69 67 64 64 65 64 65 65 65 66 65 65 66 66 66 65 65 64 64 64 64 66 69 69 72 70 70 73 73
74 73 72 71 71 69 69 68 68 67 67 68 67 66 67 60 58 60 60 61 62 63 64 64 63 65 65 65 64 65 66 66 65 64 63 63 62 66 69 69 69 71 69
72 71 68 68 67 68 68 67 67 66 66 66 65 65 65 58 58 57 58 57 60 62 62 62 63 63 64 62 62 62 63 61 62 65 64 63 64 64 66 66 69 67 66
69 69 68 66 66 65 65 65 64 63 64 64 64 63 62 59 57 57 57 56 59 62 61 60 60 59 64 59 59 60 60 61 62 62 63 64 65 66 67 66 67 67 66
66 65 64 65 64 63 63 64 64 63 62 62 62 62 62 59 56 56 57 59 60 62 61 61 60 62 61 58 57 58 58 59 60 60 63 65 67 68 68 67 67 67 67
64 64 62 63 62 62 62 63 64 62 62 62 62 62 62 61 56 56 57 58 58 59 60 60 60 59 58 58 57 57 57 56 59 61 61 62 63 64 65 67 66 66 65
61 61 63 64 64 63 64 64 64 63 63 61 62 62 59 63 55 54 56 56 56 57 59 59 59 58 56 55 56 57 56 57 58 60 63 64 66 67 65 67 67 65 64
62 63 64 64 64 65 65 64 64 64 64 64 64 64 64 62 59 54 54 57 56 56 55 56 56 56 54 53 55 56 55 57 60 61 62 66 67 67 68 68 69 67 64
63 63 64 63 60 62 64 65 64 65 64 64 64 64 62 62 55 53 53 54 57 57 55 55 56 54 53 53 55 54 55 57 59 58 59 61 64 64 64 65 66 66 66
64 63 62 63 63 64 64 64 61 64 63 62 61 60 59 56 57 53 53 54 55 57 57 55 54 53 53 55 55 55 56 56 56 57 56 57 58 61 63 64 64 64 65
63 62 63 63 63 63 61 62 62 61 60 61 59 59 56 56 55 55 54 55 55 56 56 56 53 55 55 56 56 56 57 56 56 55 55 56 58 57 57 59 61 62 61
62 61 62 59 61 61 58 56 58 55 53 57 57 57 55 55 55 49 48 50 52 52 50 58 55 53 54 55 55 56 57 56 55 55 55 55 55 55 55 57 57 57 57
61 58 55 56 56 56 56 54 52 50 51 49 48 50 56 51 46 45 44 44 45 46 54 59 55 55 55 55 56 56 55 56 56 55 55 54 54 54 53 54 54 55 54
58 56 54 54 55 54 53 52 51 51 49 48 47 47 46 46 45 47 43 45 46 50 58 56 58 60 57 56 55 54 56 57 58 55 55 55 54 54 53 53 53 53 53
60 53 53 54 53 55 56 55 53 53 53 52 48 47 46 44 44 44 45 47 57 55 56 55 55 58 60 58 54 54 54 55 54 56 54 53 55 55 53 53 52 52 52
57 52 53 53 53 54 56 56 52 56 55 58 56 49 47 44 43 43 46 51 53 54 54 55 60 58 59 59 58 56 56 53 55 55 55 55 54 51 50 50 51 48 50
58 56 54 55 52 53 52 51 53 55 56 52 52 57 55 53 56 58 58 59 58 56 56 57 55 56 58 60 60 62 55 53 56 52 55 56 55 53 49 50 51 50 51
54 53 53 51 51 52 51 55 55 55 54 54 56 54 46 53 51 53 56 54 55 56 58 60 55 57 57 56 59 58 55 55 58 55 56 57 55 55 54 52 52 51 50
55 54 51 51 52 56 56 56 56 56 53 52 52 52 46 50 50 53 55 55 53 55 55 59 52 56 54 58 56 56 56 55 56 56 55 56 56 56 55 55 55 52 52
54 55 54 52 52 54 55 54 55 55 53 53 51 51 50 51 53 51 54 53 54 56 58 59 58 58 58 59 60 56 56 57 56 55 56 53 51 53 52 52 50 51 53
55 56 55 54 55 53 53 56 56 53 54 53 52 51 51 54 54 55 55 55 54 57 57 57 57 57 56 57 56 57 56 56 58 56 58 54 55 52 53 52 51 51 53
56 58 58 60 56 56 53 53 56 58 60 51 51 52 51 51 54 54 50 56 56 57 57 58 58 58 58 56 57 56 48 40 53 46 57 57 57 54 54 53 51 51 49
59 56 57 57 59 58 55 57 60 60 58 55 55 55 54 51 53 51 54 56 54 53 55 56 58 58 57 57 58 49 41 39 49 41 52 56 54 55 53 54 49 46 47
Lifted_Index
-6 -6 -7 -7 -7 -7 -6 -7 -8 -8 -8 -8 -8 -8 -9 -8 -8 -7 -6 -5 -5 -4 -4 -4 -4 -4 -3 -3 -4 -4 -5 -5 -5 -5 -5 -5 -6 -7 -8 -7 -6 -6 -6
-6 -6 -7 -7 -7 -7 -7 -7 -8 -8 -7 -7 -7 -7 -7 -6 -6 -5 -5 -3 -3 -2 -2 -2 -2 -2 -2 -2 -2 -3 -3 -4 -4 -4 -5 -5 -6 -7 -8 -7 -7 -7 -7
-6 -6 -7 -7 -7 -7 -7 -7 -7 -7 -6 -6 -5 -4 -4 -3 -3 -2 -1 0 1 1 1 0 -0 -0 -0 -1 -1 -1 -1 -2 -3 -3 -4 -5 -5 -7 -7 -7 -7 -7 -7
-6 -6 -6 -6 -6 -6 -6 -5 -4 -4 -3 -3 -1 -1 -0 -0 1 1 2 3 3 3 2 2 1 1 1 1 0 0 -0 -1 -1 -2 -2 -3 -4 -5 -6 -7 -7 -7 -7
-6 -5 -5 -5 -4 -4 -3 -2 -0 1 1 1 1 2 2 2 3 4 5 5 5 3 3 2 2 2 2 1 1 1 0 -0 -1 -1 -1 -2 -2 -3 -5 -6 -6 -6 -6
-4 -4 -3 -3 -2 -1 -0 1 2 3 3 3 3 3 4 5 5 6 6 6 5 4 3 3 3 2 2 2 1 1 1 0 0 0 -0 -1 -2 -3 -4 -4 -5 -5 -5
-2 -2 -1 -0 0 1 2 2 2 3 3 3 4 4 5 6 7 8 8 7 5 4 4 4 4 3 3 3 3 2 2 1 2 1 1 -1 -2 -3 -3 -4 -4 -5 -4
0 0 1 2 2 2 2 3 2 3 3 4 4 5 5 6 7 8 8 7 5 4 4 4 4 4 4 4 4 4 3 2 2 2 1 -0 -2 -3 -3 -4 -4 -4 -4
1 1 2 2 2 2 2 2 2 3 4 4 5 5 5 5 6 8 8 6 5 5 4 4 4 5 4 4 4 4 3 3 2 2 1 -1 -2 -3 -3 -4 -4 -4 -4
1 1 2 2 2 2 2 2 3 4 4 4 5 5 4 4 5 7 7 6 5 5 4 4 4 4 4 4 4 4 3 3 2 1 0 -1 -2 -3 -3 -4 -4 -4 -4
1 1 2 2 2 2 2 3 3 4 4 4 4 4 3 4 6 7 7 6 5 5 4 4 4 4 4 4 4 4 3 2 1 0 -1 -2 -2 -3 -3 -4 -5 -4 -4
1 2 2 2 3 3 3 3 3 3 3 3 3 3 3 5 6 7 7 6 5 5 5 5 5 4 4 4 5 4 4 3 2 0 -1 -1 -2 -3 -3 -4 -4 -4 -4
2 2 2 3 3 3 3 3 3 3 3 3 4 4 4 5 6 6 6 6 5 4 4 5 5 5 5 5 5 5 5 4 3 2 1 -0 -1 -2 -2 -3 -3 -3 -3
2 2 3 3 3 3 3 4 4 4 4 4 4 5 5 6 6 6 6 5 5 4 4 5 5 5 5 5 5 5 5 5 4 4 3 2 1 -0 -1 -2 -2 -2 -2
2 2 3 3 3 4 4 5 5 6 6 6 6 6 5 6 6 5 5 5 4 4 4 3 4 4 4 4 4 4 5 5 5 5 5 4 3 2 1 1 -0 -1 -1
2 3 3 4 4 4 5 6 7 7 8 8 7 7 6 6 5 5 4 4 4 4 3 3 3 3 3 4 4 4 4 4 5 5 5 5 5 4 4 3 3 2 1
2 3 4 4 4 4 5 5 6 6 6 7 7 7 6 5 4 4 3 3 3 3 2 2 2 2 2 3 3 3 3 3 4 4 5 5 6 6 5 5 5 5 4
2 3 4 4 4 4 4 4 4 4 4 5 5 5 5 4 4 3 3 3 2 2 2 2 2 1 1 2 2 3 3 3 3 4 4 5 5 6 6 6 6 6 6
3 3 4 4 4 4 4 4 4 4 4 3 3 3 3 3 2 2 2 2 2 1 1 1 1 1 0 0 1 1 2 3 3 3 4 4 5 5 5 5 6 6 7
3 3 4 4 3 3 3 3 3 3 3 3 2 2 2 2 2 1 1 1 1 1 1 1 0 0 -0 -1 -1 -0 0 1 1 2 2 2 3 4 4 5 5 5 6
2 3 4 3 3 3 3 3 3 3 3 2 2 2 2 2 2 1 0 0 0 0 0 -0 -0 -0 -1 -1 -1 -1 -1 -0 -0 -0 0 1 1 2 2 3 4 4 4
2 2 3 3 3 2 2 2 2 2 2 1 1 2 2 2 1 1 0 0 0 0 -0 -0 -0 -1 -1 -1 -1 -1 -1 -1 -1 -1 -0 -0 0 1 1 2 2 3 3
1 1 2 2 2 2 2 1 1 1 1 1 0 1 1 1 1 0 0 0 0 -0 -1 -1 -1 -1 -1 -1 -1 -1 -1 -1 -1 -1 -0 0 1 1 1 2 2 2 2
0 1 1 1 1 1 1 0 0 0 -0 -0 -0 -0 -0 0 0 -0 -0 -0 -0 -1 -1 -2 -2 -1 -1 -1 -1 -1 -1 -0 -0 -0 -0 -0 0 1 1 2 2 2 2
-0 -0 0 0 0 0 -0 -1 -1 -1 -0 -0 -1 -1 -1 -0 -0 -0 -0 -0 -1 -1 -1 -2 -2 -2 -1 -1 -1 -1 -0 1 1 1 0 -0 0 1 1 1 2 3 3
-1 -1 -1 -1 -1 -1 -1 -2 -2 -1 0 -0 -1 -1 -1 -0 -0 -0 -0 -1 -1 -1 -1 -2 -2 -2 -2 -2 -1 -1 -0 1 2 1 1 0 0 0 1 1 2 3 4